Siler City Muni, Siler City,, NC

5:35 AM EST on December 16, 2017 (GMT -0500)
Siler City Muni, Siler City,

Weather History for K5W8 - April, 2014

Change the Weather History Date:

Friday, April 4, 2014

  Actual Average (KBUY) Record (KBUY)
Temperature  
Mean Temperature 64 °F -  
Max Temperature 79 °F 70 °F 87 °F (1999)
Min Temperature 50 °F 43 °F 29 °F (1992)
Growing Degree Days 14 (Base 50)    
Moisture  
Dew Point 52 °F    
Average Humidity 59    
Maximum Humidity 86    
Minimum Humidity 36    
Precipitation  
Precipitation 0.00 in - - ()
Sea Level Pressure  
Sea Level Pressure 29.84 in    
Wind  
Wind Speed 5 mph (SSW)    
Max Wind Speed 20 mph    
Max Gust Speed 28 mph    
Visibility 10 miles    
Events      
Averages and records for this station are not official NWS values.
T = Trace of Precipitation, MM = Missing Value Source: NWS Daily Summary

Daily Weather History Graph

Daily Weather History Graph

Search for Another Location

Airport or City:

Trip Planner

Search our weather history database for the weather conditions in past years. The results will help you decide how hot, cold, wet, or windy it might be!

Date:

Astronomy

Apr. 04, 2014 Rise Set
Actual Time 7:00 AM EDT 7:42 PM EDT
Civil Twilight 6:34 AM EDT 8:08 PM EDT
Nautical Twilight 6:04 AM EDT 8:38 PM EDT
Astronomical Twilight 5:32 AM EDT 9:09 PM EDT
Moon 10:22 AM EDT (4/4) No Moon Set
Length of Visible Light 13h 33m
Length of Day
12h 41m
Waxing Crescent, 25% of the Moon is Illuminated
Apr 4
Waxing Crescent
Apr 7
First Quarter
Apr 15
Full
Apr 22
Last Quarter
Apr 29
New

Hourly Weather History & Observations

Time (EDT) Temp. Dew Point Humidity Pressure Visibility Wind Dir Wind Speed Gust Speed Precip Events Conditions
12:15 AM 66.0 °F 45.0 °F 47% 29.91 in 10.0 mi Calm Calm - N/A   Clear
12:35 AM 64.6 °F 45.1 °F 49% 29.91 in 10.0 mi SSW 3.5 mph - N/A   Clear
12:55 AM 64.6 °F 45.0 °F 49% 29.90 in 10.0 mi South 3.5 mph - N/A   Clear
1:15 AM 63.5 °F 45.1 °F 51% 29.90 in 10.0 mi Calm Calm - N/A   Clear
1:35 AM 64.2 °F 45.0 °F 50% 29.90 in 10.0 mi Calm Calm - N/A   Clear
1:55 AM 64.0 °F 45.1 °F 50% 29.91 in 10.0 mi SW 5.8 mph - N/A   Clear
2:15 AM 59.7 °F 45.9 °F 60% 29.91 in 10.0 mi Calm Calm - N/A   Clear
2:35 AM 57.7 °F 46.4 °F 66% 29.90 in 10.0 mi Calm Calm - N/A   Clear
2:55 AM 56.5 °F 46.4 °F 69% 29.90 in 10.0 mi Calm Calm - N/A   Clear
3:15 AM 55.0 °F 46.9 °F 74% 29.89 in 10.0 mi Calm Calm - N/A   Clear
3:35 AM 53.6 °F 47.1 °F 79% 29.89 in 10.0 mi Calm Calm - N/A   Clear
3:55 AM 51.6 °F 46.4 °F 82% 29.88 in 10.0 mi Calm Calm - N/A   Clear
4:15 AM 51.3 °F 46.6 °F 84% 29.87 in 10.0 mi Calm Calm - N/A   Clear
4:35 AM 50.0 °F 46.0 °F 86% 29.86 in 10.0 mi Calm Calm - N/A   Clear
4:50 AM 50.9 °F 46.6 °F 85% 29.86 in 10.0 mi Calm Calm - N/A   Clear
5:15 AM 50.4 °F 46.4 °F 86% 29.86 in 10.0 mi South 3.5 mph - N/A   Clear
5:35 AM 50.5 °F 45.9 °F 84% 29.86 in 10.0 mi South 3.5 mph - N/A   Clear
5:55 AM 55.6 °F 46.9 °F 73% 29.86 in 10.0 mi South 3.5 mph - N/A   Clear
6:15 AM 53.1 °F 47.1 °F 80% 29.86 in 10.0 mi Calm Calm - N/A   Clear
6:35 AM 51.6 °F 46.6 °F 83% 29.86 in 10.0 mi Calm Calm - N/A   Clear
6:55 AM 54.3 °F 47.7 °F 78% 29.86 in 10.0 mi SSW 3.5 mph - N/A   Clear
7:15 AM 56.3 °F 49.1 °F 77% 29.86 in 10.0 mi South 4.6 mph - N/A   Clear
7:35 AM 57.2 °F 50.0 °F 77% 29.86 in 10.0 mi South 3.5 mph - N/A   Clear
7:55 AM 59.4 °F 51.4 °F 75% 29.87 in 10.0 mi SSW 5.8 mph - N/A   Clear
8:15 AM 60.1 °F 51.8 °F 74% 29.88 in 10.0 mi SSW 3.5 mph - N/A   Clear
8:35 AM 60.1 °F 52.7 °F 77% 29.88 in 10.0 mi South 3.5 mph - N/A   Clear
8:55 AM 60.6 °F 52.7 °F 75% 29.88 in 10.0 mi South 3.5 mph - N/A   Clear
9:15 AM 61.7 °F 53.1 °F 73% 29.87 in 10.0 mi South 5.8 mph - N/A   Clear
9:35 AM 62.8 °F 53.8 °F 72% 29.86 in 10.0 mi SSW 5.8 mph - N/A   Clear
9:55 AM 64.9 °F 54.1 °F 68% 29.86 in 10.0 mi South 8.1 mph - N/A   Clear
10:15 AM 66.9 °F 53.8 °F 63% 29.86 in 10.0 mi SSW 11.5 mph 18.4 mph N/A   Clear
10:35 AM 68.7 °F 53.6 °F 58% 29.87 in 10.0 mi SSW 12.7 mph 19.6 mph N/A   Clear
10:55 AM 68.9 °F 54.0 °F 59% 29.88 in 10.0 mi SSW 10.4 mph 19.6 mph N/A   Clear
11:15 AM 69.4 °F 54.0 °F 58% 29.88 in 10.0 mi SSW 15.0 mph 19.6 mph N/A   Clear
11:35 AM 69.8 °F 52.9 °F 55% 29.88 in 10.0 mi SSW 13.8 mph 19.6 mph N/A   Clear
11:55 AM 71.2 °F 52.3 °F 51% 29.88 in 10.0 mi SSW 12.7 mph 16.1 mph N/A   Clear
12:15 PM 72.0 °F 50.5 °F 47% 29.87 in 10.0 mi SSW 15.0 mph 20.7 mph N/A   Clear
12:35 PM 73.2 °F 50.5 °F 45% 29.86 in 10.0 mi SSW 13.8 mph - N/A   Clear
12:55 PM 74.3 °F 49.6 °F 42% 29.85 in 10.0 mi SSW 13.8 mph 24.2 mph N/A   Clear
1:15 PM 75.4 °F 47.8 °F 38% 29.85 in 10.0 mi SSW 11.5 mph 26.5 mph N/A   Clear
1:35 PM 75.6 °F 47.3 °F 37% 29.85 in 10.0 mi SW 13.8 mph 21.9 mph N/A   Clear
2:15 PM 77.2 °F 49.1 °F 37% 29.84 in 10.0 mi SW 18.4 mph 25.3 mph N/A   Clear
2:35 PM 78.1 °F 49.3 °F 36% 29.82 in 10.0 mi SW 12.7 mph 25.3 mph N/A   Clear
2:55 PM 78.8 °F 50.9 °F 38% 29.82 in 10.0 mi SSW 13.8 mph 25.3 mph N/A   Clear
3:15 PM 79.0 °F 52.9 °F 40% 29.81 in 10.0 mi SW 11.5 mph 25.3 mph N/A   Clear
3:35 PM 79.3 °F 54.3 °F 42% 29.81 in 10.0 mi WSW 19.6 mph 27.6 mph N/A   Clear
3:55 PM 78.8 °F 55.2 °F 44% 29.81 in 10.0 mi SW 16.1 mph 23.0 mph N/A   Clear
4:15 PM 78.6 °F 55.8 °F 45% 29.80 in 10.0 mi SW 12.7 mph 23.0 mph N/A   Scattered Clouds
4:55 PM 77.4 °F 56.8 °F 49% 29.78 in 10.0 mi SSW 11.5 mph 20.7 mph N/A   Clear
5:10 PM 77.5 °F 56.8 °F 49% 29.77 in 10.0 mi South 16.1 mph 21.9 mph N/A   Clear
5:35 PM 76.1 °F 56.7 °F 51% 29.76 in 10.0 mi South 15.0 mph 23.0 mph N/A   Clear
5:55 PM 76.5 °F 57.2 °F 51% 29.76 in 10.0 mi SSW 9.2 mph 18.4 mph N/A   Clear
6:15 PM 76.3 °F 57.6 °F 52% 29.76 in 10.0 mi SSW 10.4 mph 17.3 mph N/A   Clear
6:35 PM 75.6 °F 57.6 °F 53% 29.76 in 10.0 mi SSW 10.4 mph - N/A   Clear
6:55 PM 74.8 °F 57.6 °F 55% 29.76 in 10.0 mi SSW 10.4 mph 17.3 mph N/A   Clear
7:15 PM 74.7 °F 57.6 °F 55% 29.76 in 10.0 mi SSW 6.9 mph - N/A   Clear
7:35 PM 73.9 °F 57.4 °F 56% 29.76 in 10.0 mi SSW 6.9 mph - N/A   Clear
7:55 PM 73.6 °F 57.4 °F 57% 29.76 in 10.0 mi South 8.1 mph - N/A   Clear
8:15 PM 73.6 °F 57.0 °F 56% 29.76 in 10.0 mi SSW 5.8 mph - N/A   Clear
8:35 PM 73.4 °F 56.7 °F 56% 29.76 in 10.0 mi SSW 8.1 mph - N/A   Clear
8:55 PM 73.4 °F 56.7 °F 56% 29.76 in 10.0 mi SSW 6.9 mph - N/A   Clear
9:15 PM 73.4 °F 56.5 °F 55% 29.76 in 10.0 mi SSW 5.8 mph - N/A   Clear
9:35 PM 73.4 °F 56.5 °F 55% 29.77 in 10.0 mi SSW 8.1 mph - N/A   Clear
9:55 PM 73.2 °F 56.5 °F 56% 29.78 in 10.0 mi SW 6.9 mph - N/A   Clear
10:15 PM 72.9 °F 56.7 °F 57% 29.79 in 10.0 mi SW 6.9 mph - N/A   Clear
10:35 PM 72.7 °F 56.5 °F 57% 29.79 in 10.0 mi SW 6.9 mph - N/A   Clear
10:55 PM 72.5 °F 55.2 °F 54% 29.79 in 10.0 mi SW 8.1 mph - N/A   Clear
11:15 PM 72.9 °F 52.3 °F 48% 29.80 in 10.0 mi SW 8.1 mph 18.4 mph N/A   Clear
11:35 PM 72.5 °F 50.5 °F 46% 29.80 in 10.0 mi SW 9.2 mph - N/A   Clear
11:55 PM 72.1 °F 50.0 °F 46% 29.80 in 10.0 mi SW 9.2 mph 17.3 mph N/A   Clear